www.pogodaiklimat.ru

Архив погоды в Алматы (Алматинская область, Казахстан)

Время
(UTC), дата
00 17.10
03 17.10
06 17.10
09 17.10
12 17.10
15 17.10
18 17.10
21 17.10
00 18.10
03 18.10
06 18.10
09 18.10
12 18.10
15 18.10
18 18.10
21 18.10
00 19.10
03 19.10
06 19.10
09 19.10
12 19.10
15 19.10
18 19.10
21 19.10
00 20.10
03 20.10
06 20.10
09 20.10
12 20.10
15 20.10
18 20.10
21 20.10
00 21.10
03 21.10
06 21.10
09 21.10
12 21.10
15 21.10
18 21.10
21 21.10
00 22.10
03 22.10
06 22.10
09 22.10
12 22.10
15 22.10
18 22.10
21 22.10
00 23.10
03 23.10
06 23.10
09 23.10
12 23.10
15 23.10
18 23.10
21 23.10
Ветер
(напр.,м/с)
Видим. Явления Облачность Т
(С)
Тd
(С)
f
(%)
Тe
(С)
Тes
(С)
Комфортность P
(гПа)
Po
(гПа)
Тmin
(С)
Tmax
(С)
R
(мм)
R24
(мм)
S
(см)
штиль 0
{2}
н/о ясно +4.4 -1.1 67 +4 +4 по сезону 1024.2 924.0
штиль 0 20 км ясно +9.4 +0.4 53 +9 +11 по сезону 1023.2 924.8
штиль 0 10 км ясно +14.2 -0.7 36 +14 +24 тепло 1021.1 924.4 +4.2
штиль 0 10 км ясно +16.9 +0.2 32 +17 +24 тепло 1018.4 922.8
СВ 1 20 км ясно +14.0 +1.0 41 +15 +15 тепло 1019.4 922.9
штиль 0 н/о ясно +8.8 +1.9 62 +8 +8 по сезону 1022.2 923.7 +17.5
штиль 0 н/о ясно +7.3 +0.8 63 +7 +7 по сезону 1021.8 922.8 +17.5
штиль 0 н/о ясно +7.0 +0.2 62 +7 +7 по сезону 1020.9 921.9
штиль 0
{2}
н/о ясно +5.2 -1.0 64 +5 +5 по сезону 1021.3 921.6
штиль 0 10 км 1/0
[Ci fib]
+8.9 0.0 54 +9 +10 тепло 1019.9 921.6
штиль 0 10 км 3/0
[Ci fib]
+14.6 +0.1 37 +15 +23 тепло 1016.8 920.7 +4.7
штиль 0 10 км 3/0
[Ci fib]
+16.4 +0.8 35 +16 +23 тепло 1014.4 919.1
С 1 10 км 3/0
[Ci fib]
+13.8 -0.2 38 +14 +14 тепло 1015.4 919.1
штиль 0 н/о ясно +9.4 +1.3 57 +9 +9 по сезону 1017.3 919.4 +17.4
С 1 н/о ясно +8.8 +0.2 55 +9 +9 тепло 1016.9 918.9 +17.4
СВ 1 н/о 3/0
[Ci fib]
+8.6 +0.2 56 +8 +8 тепло 1015.6 917.7
СВ 1
{2}
н/о 6/0
[Ci fib]
+6.8 +0.5 64 +6 +6 по сезону 1016.6 917.9
штиль 0 20 км 8/0
[Ci fib]
+9.9 +1.4 55 +10 +11 тепло 1015.8 918.2
штиль 0 4000 м дым ясно +14.8 +1.1 39 +15 +24 тепло 1013.5 917.7 +6.8
штиль 0 4000 м дым ясно +17.7 +0.7 32 +18 +24 тепло 1011.5 916.8
штиль 0 4000 м дым 4/0
[Ac trans]
+14.9 +3.0 45 +15 +15 тепло 1013.5 917.8
штиль 0 н/о 3/0
[Ac trans]
+10.0 +3.1 62 +10 +10 тепло 1016.1 918.6 +18.5
штиль 0 н/о ясно +8.5 +0.7 58 +8 +8 тепло 1017.0 918.9 +18.5
штиль 0 н/о 8/0
[Ac trans]
+8.8 +0.5 56 +8 +8 тепло 1016.6 918.7
штиль 0
{2}
н/о 8/0
[Ac trans]
+9.0 +0.8 56 +9 +9 тепло 1016.8 918.8
штиль 0 20 км 10/0
[Ci]
+12.6 +3.1 52 +12 +14 тепло 1017.1 920.3
штиль 0 10 км 10/0
[Ac trans Ci fib]
+19.6 +2.0 31 +20 +25 тепло 1014.7 920.4 +8.5
С 1 10 км 10/0
[Ac trans Ci fib]
+20.4 +2.2 30 +22 +25 комфорт 1012.5 918.6
СВ 1 10 км 10/0
[Ac trans Ci fib]
+17.6 +2.4 36 +19 +19 тепло 1014.3 919.4
штиль 0 н/о 10/0
[Ci]
+14.4 +0.7 39 +14 +14 тепло 1015.5 919.5 +21.1
штиль 0 н/о 10/0
[Ci]
+12.1 -0.3 42 +12 +12 тепло 1015.7 918.8 +21.1
штиль 0 н/о 10/0
[Ac trans Ci fib]
+11.3 -0.3 45 +11 +11 тепло 1016.4 919.2
штиль 0
{2}
н/о 10/0
[Ac trans Ci]
+10.8 -0.1 47 +11 +11 тепло 1016.5 919.1
Ю 1 20 км 10/0
[Ac trans Ci fib]
+15.0 +0.4 37 +16 +17 тепло 1016.9 920.8
СВ 2 10 км 3/3 1000 м
[Cu hum]
+16.8 +1.1 35 +17 +22 тепло 1013.4 918.3 +10.6
С 1 10 км 8/3 1000 м
[Cu hum Ci fib]
+19.2 +1.4 30 +20 +24 тепло 1009.7 915.7
штиль 0 10 км 10/3 600 м
[Cb cap Ac As]
+17.0 +2.7 38 +17 +17 тепло 1008.7 914.1
ЮЗ 2 н/о 10/8 600 м
[Cb cap Ac As]
+16.0 +0.4 35 +16 +16 тепло 1016.0 920.4 +20.5
штиль 0 н/о в посл. час ливневой дождь 10/10 600 м
[Cb cap]
+8.9 +4.3 73 +8 +8 по сезону 1023.0 924.5 +20.5
штиль 0 н/о ливневой дождь 10/10 600 м
[Cb cap]
+4.0 +2.6 91 +3 +3 по сезону 1028.8 928.1
штиль 0 н/о слаб. ливневой снег 10/10 600 м
[Cb cap]
+0.6 +0.1 96 -1 -1 холодно 1031.5 929.3
штиль 0 4000 м слаб. ливневой снег 10/10 600 м
[Cb cap]
+0.9 -0.7 89 -0 -0 очень
холодно
1033.2 930.9 3
штиль 0 4000 м слаб. ливневой снег 10/10 600 м
[Cb cap]
+1.9 -0.2 86 +1 +1 очень
холодно
1033.4 931.4 +0.6 22
штиль 0 4000 м слаб. ливневой дождь 10/10 600 м
[Cb cap]
+1.2 +0.4 94 -0 -0 очень
холодно
1034.0 931.8
штиль 0 4000 м {ливн. дождь} 10/10 600 м
[Cb cap]
+1.5 +0.5 93 0 0 очень
холодно
1035.6 933.3
В 1 н/о слаб. ливневой дождь 10/10 600 м
[Cb cap]
+1.8 +0.2 89 0 0 очень
холодно
1037.3 934.9 +2.4
штиль 0 н/о {ливн. дождь} 9/4 600 м
[Cb cap Ac trans]
+1.6 -0.3 87 +1 +1 холодно 1037.6 935.1 +2.4 3
штиль 0 н/о 6/0
[Ac trans]
+0.5 -0.6 92 -1 -1 холодно 1038.2 935.3
штиль 0
{2}
н/о 3/0
[Ac trans]
+0.1 -1.9 86 -1 -1 холодно 1038.6 935.4
штиль 0 20 км ясно +2.2 -1.0 79 +1 +3 холодно 1038.2 935.9
СВ 1 20 км ясно +7.2 -0.3 59 +7 +14 прохладно 1035.1 934.8 -0.5 0.3
С 1 10 км ясно +8.6 -2.1 47 +8 +14 прохладно 1032.8 933.1
штиль 0 20 км ясно +7.2 -0.2 59 +7 +7 прохладно 1033.4 933.3
штиль 0 н/о ясно +3.2 +0.1 80 +2 +2 холодно 1035.3 933.6 +9.3
штиль 0 н/о ясно +2.0 -0.7 82 +1 +1 холодно 1034.4 932.4 +9.3
штиль 0 н/о ясно +0.9 -1.0 87 -0 -0 холодно 1033.6 931.2
Местоположение метеостанции Алматы (Алматинская область, Казахстан): широта 43.23 долгота 76.93 высота над уровнем моря 851 м.
В архиве по умолчанию представлена погода в Алматы за последнюю неделю. Архивные данные за месяц целиком и за предыдущие месяцы, начиная с января 2011 года, Вы можете получить, выбрав интересующий диапазон дат из раскрывающегося списка и нажав кнопку "Найти!".
*Определитесь, кто Вы:
Внимание! Время в таблицах - всемирное. Для получения местного времени необходимо прибавить поправку, которая равна 6 ч.
Смотрите также архив погоды в соседних городах и на ближайших метеорологических станциях:
Партнеры нашего сайта:      
Пояснения к столбцам:
  • Ветер - указаны скорость ветра в м/с - средняя за 10 мин, порывы в срок и между сроками (в фигурных скобках) и направление, откуда дует ветер: С - северный,
  • СВ - северо-восточный, В - восточный, ЮВ - юго-восточный, Ю - южный, ЮЗ - юго-западный, З - западный, СЗ - северо-западный.
  • Видимость - горизонтальная дальность видимости в метрах или километрах. При видимости от 1 до 10 км при отсутствии осадков обычно наблюдается дымка, при ухудшении видимости до 1 км и менее - туман. В сухую погоду видимость может ухудшаться дымом, пылью или мглою.
  • Явления - указаны атмосферные явления, наблюдавшиеся в срок или в последний час перед сроком; фигурными скобками обозначены явления, наблюдавшиеся между сроками (за 1-3 часа до срока); квадратными скобками обозначены град или гололедные отложения с указанием их диаметра в мм.
  • Облачность - указаны через наклонную черту общая и нижняя облачность в баллах и высота нижней границы облаков в метрах; квадратными скобками обозначены формы облаков: Ci - перистые, Cs - перисто-слоистые, Cc - перисто-кучевые, Ac - высококучевые, As - высокослоистые, Sc - слоисто-кучевые, Ns - слоисто-дождевые, Cu - кучевые, Cb - кучево-дождевые. Подробнее классификацию облаков см. в Атласе облаков (PDF).
  • T - Температура воздуха - температура, измеренная на высоте 2 м над землей.
  • Td - Температура точки росы - температура, при понижении до которой содержащийся в воздухе водяной пар достигнет насыщения.
  • f - Относительная влажность воздуха - влажноcть воздуха, измеренная на высоте 2 м над землей.
  • Te - Эффективная температура - температура, которую ощущает одетый по сезону человек в тени. Характеристика душности погоды. При расчете учитывается влияние влажности воздуха и скорости ветра на теплоощущения человека.
  • Tes - Эффективная температура на солнце - температура, которую ощущает человек, с поправкой на солнечный нагрев. Характеристика знойности погоды. Зависит от высоты солнца над горизонтом, облачности и скорости ветра. Ночью, в пасмурную погоду, а также при ветре 12 м/с и более поправка равна нулю.
  • P - Атмосферное давление - приведенное к уровню моря атмосферное давление.
  • Po - Атмосферное давление - измеренное на уровне метеостанции атмосферное давление.
  • Tmin - Минимальная температура - минимум температуры воздуха на высоте 2 м над землей.
  • Tmax - Максимальная температура - максимум температуры воздуха на высоте 2 м над землей.
  • R - Количество осадков - Количество выпавших осадков за период времени, мм. При наведении курсора мыши на число - период времени, за который выпало указанное количество осадков.
  • R24 - Количество осадков - Количество выпавших осадков за 24 часа, мм.
  • S - Снежный покров - Высота снежного покрова, см. При наведении курсора мыши на число - состояние снежного покрова и степень покрытия местности в баллах.